Home > Time Zones > World Clock > Weather > Norway > Odda > Past weeks

Flag for Norway Weather past 2 weeks in Odda, Norway

Now
49 °F

Cool.


Feels Like: 48 °F
Forecast: 60 / 67 °F
Wind: 3 mph from West

Location: Midtlaeger

Current Time: Jul 30, 2014 at 11:32:19 AM

Latest Report: Jul 30, 2014 at 10:00 AM


Visibility: N/A

Pressure: 29.70 "Hg

Humidity: 81%

Dew point: 44 °F

Location of OddaLocation

Historic Weather in Odda — Graph

°F

Odda temperature yesterday

Maximum temperature yesterday: 62 °F (at 1:00 PM)
Minimum temperature yesterday: 51 °F (at 11:00 PM)
Average temperature yesterday: 56 °F

Past Weeks' High & Low Weather Summary

 TemperatureHumidityPressure
High75 °F (Jul 23, 6:00 PM)93% (Jul 16, 2:00 AM)30.35 "Hg (Jul 16, 2:00 AM)
Low44 °F (Jul 18, 6:00 AM)31% (Jul 23, 6:00 PM)29.67 "Hg (Jul 30, 7:00 AM)
Average57 °F68%30.05 "Hg
* Reported Jul 15 10:00 AM — Jul 30 10:00 AM, Odda, Weather by CustomWeather, © 2014

Note: Actual official high and low records may vary slightly from our data, if they occured in-between our weather recording intervals... More about our weather records

Advertising

Odda weather history for previous 24 hours

 ConditionsComfort  
Time TempWeatherWind HumidityBarometerVisibility
10:00 AM
Jul 30
49 °FCool.3 mph81%29.70 "HgN/A
9:00 AM48 °FCool.5 mph84%29.71 "HgN/A
8:00 AM49 °FCool.2 mph90%29.68 "HgN/A
7:00 AM50 °FCool.2 mph85%29.67 "HgN/A
6:00 AM49 °FCool.1 mph89%29.69 "HgN/A
5:00 AM49 °FCool.2 mph85%29.70 "HgN/A
4:00 AM49 °FCool.1 mph85%29.71 "HgN/A
3:00 AM49 °FCool.3 mph84%29.73 "HgN/A
2:00 AM50 °FCool.3 mph87%29.74 "HgN/A
1:00 AM49 °FCool.No wind85%29.76 "HgN/A
12:00 AM51 °FCool.3 mph81%29.76 "HgN/A
11:00 PM
Jul 29
51 °FCool.3 mph82%29.77 "HgN/A
10:00 PM52 °FCool.3 mph81%29.76 "HgN/A
9:00 PM54 °FCool.6 mph73%29.76 "HgN/A
8:00 PM55 °FCool.5 mph74%29.76 "HgN/A
7:00 PM56 °FCool.6 mph75%29.76 "HgN/A
6:00 PM57 °FCool.5 mph74%29.76 "HgN/A
5:00 PM59 °FCool.6 mph66%29.75 "HgN/A
4:00 PM60 °FCool.6 mph64%29.75 "HgN/A
3:00 PM62 °FCool.6 mph63%29.75 "HgN/A
2:00 PM61 °FRefreshingly cool.6 mph60%29.76 "HgN/A
1:00 PM62 °FMild.3 mph56%29.76 "HgN/A
12:00 PM59 °FCool.5 mph66%29.80 "HgN/A
11:00 AM58 °FCool.3 mph68%29.82 "HgN/A
Weather by CustomWeather, © 2014

See weather overviewHow to use our weather pages